This is the latest recevied weather packets stored in our database for station/object KD8OZS. If no packets are shown the sender has not sent any weather packets the latest 10 day(s).
| Time | Temp. | Humidity | Pressure | Rain* | Wind** | Luminosity | Snow |
|---|---|---|---|---|---|---|---|
| 1787514103 | 22.22° C | 68% | 1006.8 hPa | 0 mm | - | 100 W/m² | - |
| 1787513798 | 22.78° C | 64% | 1006.8 hPa | 0 mm | - | 106 W/m² | - |
| 1787513494 | 23.33° C | 63% | 1006.9 hPa | 0 mm | - | 537 W/m² | - |
| 1787513190 | 23.33° C | 63% | 1006.8 hPa | 0 mm | - | 544 W/m² | - |
| 1787512886 | 23.89° C | 63% | 1006.8 hPa | 0 mm | - | 230 W/m² | - |
| 1787512582 | 23.89° C | 59% | 1007 hPa | 0 mm | - | 555 W/m² | - |
| 1787512278 | 23.89° C | 64% | 1007 hPa | 0 mm | - | 586 W/m² | - |
| 1787511973 | 22.22° C | 67% | 1007.1 hPa | 0 mm | - | 651 W/m² | - |
| 1787511669 | 22.78° C | 67% | 1007 hPa | 0 mm | - | 140 W/m² | - |
| 1787511367 | 22.78° C | 64% | 1007.2 hPa | 0 mm | - | 147 W/m² | - |
| 1787511061 | 23.89° C | 64% | 1007.3 hPa | 0 mm | - | 381 W/m² | - |
| 1787510756 | 23.33° C | 61% | 1007.1 hPa | 0 mm | - | 647 W/m² | - |
| 1787510451 | 22.78° C | 62% | 1007.3 hPa | 0 mm | - | 637 W/m² | - |
| 1787510147 | 23.33° C | 70% | 1007.2 hPa | 0 mm | - | 642 W/m² | - |
| 1787509843 | 22.78° C | 64% | 1007.2 hPa | 0 mm | - | 624 W/m² | - |
| 1787509538 | 22.22° C | 66% | 1007.1 hPa | 0 mm | - | 631 W/m² | - |
| 1787509235 | 22.78° C | 64% | 1007.5 hPa | 0 mm | - | 431 W/m² | - |
| 1787508934 | 22.78° C | 67% | 1007.3 hPa | 0 mm | - | 607 W/m² | - |
| 1787508631 | 22.22° C | 64% | 1007.5 hPa | 0 mm | - | 728 W/m² | - |
| 1787508325 | 21.67° C | 69% | 1007.5 hPa | 0 mm | - | 696 W/m² | - |
| 1787508022 | 21.67° C | 67% | 1007.4 hPa | 0 mm | - | 163 W/m² | - |
| 1787507718 | 22.78° C | 64% | 1007.6 hPa | 0 mm | - | 176 W/m² | - |
| 1787507414 | 22.78° C | 66% | 1007.5 hPa | 0 mm | - | 418 W/m² | - |
| 1787507109 | 22.78° C | 61% | 1007.5 hPa | 0 mm | - | 694 W/m² | - |
| 1787506805 | 22.78° C | 65% | 1007.4 hPa | 0 mm | - | 640 W/m² | - |
* Rain latest hour (hover to see other rain measurements)
** Current wind speed in m/s (hover to see current wind gust speed)